This is the latest recevied weather packets stored in our database for station/object CN8UN-10. If no packets are shown the sender has not sent any weather packets the latest 1 day(s).
| Time | Temp. | Humidity | Pressure | Rain* | Wind** | Luminosity | Snow |
|---|---|---|---|---|---|---|---|
| 1777989297 | 20° C | 100% | 0 hPa | 0 mm | 2.24 m/s, 350° | - | - |
| 1777988997 | 20° C | 100% | 0 hPa | 0 mm | 3.13 m/s, 343° | - | - |
| 1777988697 | 20° C | 100% | 0 hPa | 0 mm | 3.58 m/s, 333° | - | - |
| 1777988397 | 20.56° C | 100% | 0 hPa | 0 mm | 3.58 m/s, 323° | - | - |
| 1777988097 | 20.56° C | 100% | 0 hPa | 0 mm | 2.24 m/s, 355° | - | - |
| 1777987797 | 20.56° C | 100% | 0 hPa | 0 mm | 1.34 m/s, 213° | - | - |
| 1777987497 | 20.56° C | 100% | 0 hPa | 0 mm | 5.36 m/s, 0° | - | - |
| 1777987197 | 20.56° C | 100% | 0 hPa | 0 mm | 0.45 m/s, 135° | - | - |
| 1777986897 | 20° C | 100% | 0 hPa | 0 mm | 4.92 m/s, 300° | - | - |
| 1777986597 | 20.56° C | 100% | 0 hPa | 0 mm | 3.13 m/s, 317° | - | - |
| 1777986297 | 20.56° C | 100% | 0 hPa | 0 mm | 1.34 m/s, 291° | - | - |
| 1777985997 | 20° C | 100% | 0 hPa | 0 mm | 4.02 m/s, 16° | - | - |
| 1777985697 | 20° C | 100% | 0 hPa | 0 mm | 4.47 m/s, 331° | - | - |
| 1777985397 | 20° C | 100% | 0 hPa | 0 mm | 2.24 m/s, 14° | - | - |
| 1777985097 | 20.56° C | 100% | 0 hPa | 0 mm | 2.24 m/s, 322° | - | - |
| 1777984797 | 20° C | 100% | 0 hPa | 0 mm | 1.34 m/s, 32° | - | - |
| 1777984497 | 20° C | 100% | 0 hPa | 0 mm | 4.47 m/s, 329° | - | - |
| 1777984197 | 20° C | 100% | 0 hPa | 0 mm | 3.58 m/s, 82° | - | - |
| 1777983897 | 20° C | 100% | 0 hPa | 0 mm | 3.58 m/s, 338° | - | - |
| 1777983597 | 20° C | 100% | 0 hPa | 0 mm | 0.89 m/s, 26° | - | - |
| 1777983297 | 20° C | 100% | 0 hPa | 0 mm | 3.58 m/s, 355° | - | - |
| 1777982997 | 20° C | 100% | 0 hPa | 0 mm | 4.92 m/s, 344° | - | - |
| 1777982697 | 20° C | 100% | 0 hPa | 0 mm | 2.24 m/s, 337° | - | - |
| 1777982397 | 20° C | 100% | 0 hPa | 0 mm | 1.34 m/s, 97° | - | - |
| 1777982097 | 20° C | 100% | 0 hPa | 0 mm | 2.68 m/s, 341° | - | - |
* Rain latest hour (hover to see other rain measurements)
** Current wind speed in m/s (hover to see current wind gust speed)